Meath Environmental Platform

Observations for Trim Market St

Time AQI Temp °C Hum % Pres Pa CO μg/m³ H₂S μg/m³ NO μg/m³ NO₂ μg/m³ O₃ μg/m³ SO₂ μg/m³ PM1 μg/m³ PM2.5 μg/m³ PM10 μg/m³
Tuesday 14 July 2026
21:06 2 22 50 55,816 0 2.93 0 13.79 27.74 0 4.28 8.09 10.5
21:05 2 22 50 55,864 0 3.56 0.4 16.21 19.85 0 5.7 8.61 13.48
21:04 2 22 50 55,933 0 2.74 0 9.92 29.54 0 4.99 8.1 10.51
21:03 2 22.1 50 56,021 0 2.11 0 11 29.62 0 4.99 9.14 12
20:59 2 22.2 49 56,495 0 4.19 0 13.85 27.18 0 5.7 9.18 12.02
20:58 2 22.2 49 56,783 0 6.12 0 12.59 29.7 0 5.7 9.71 15.04
20:56 2 22.3 49 57,661 0 4.67 0 11.32 33.57 0 3.56 6.64 8.28
20:55 2 22.3 48 58,217 0 6.65 0 12.25 34.23 0 4.99 9.25 12.06
20:54 2 22.3 48 58,878 0 6.25 0 14.89 28.66 0 3.56 6.68 9.8
20:53 2 22.3 48 59,691 0 4.64 0 13.91 28.3 0 3.56 7.21 9.04
20:52 2 22.3 48 60,159 0 2.37 0 10.93 31.58 0 4.28 8.25 11.33
20:45 2 22.5 46 62,444 0 0 0 6.94 32.15 0 2.85 5.74 6.76
20:44 2 22.6 46 62,484 0 0 0 7.32 31.66 0 2.85 6.78 12.14
20:43 2 22.6 46 62,616 0 0 0 6.73 30.65 0 4.28 7.83 9.83
20:42 2 22.6 46 62,679 0 0 0 7.64 30.64 0 4.28 8.35 10.61
20:39 2 22.7 46 62,813 0 0 0 7.64 28.45 0 2.85 6.28 7.53
20:38 2 22.7 46 62,859 0 0 0 8.14 32.17 0 2.85 7.32 9.84
20:36 2 22.8 46 62,928 0 0 0 6.74 32.27 0 3.56 6.81 8.3
20:31 2 23 46 62,966 0 0 0 4.88 25.31 0 4.28 7.33 10.62
20:30 2 23 46 62,804 0 0 0 5.56 25.1 0 2.85 7.84 9.84